CFG7TW EDDH-EDDL

Flight info

Callsign CFG7TW
Flight time N/A
Altitude 24000
Route HABFU1G HABFU Y348 MAWEQ Z718 OSNAD M170 HMM T851 HALME HALME1A
Aircraft A20N/M-SDE2E3FGHIRWXY/LB1

Departure

Time 2026-04-30 22:41
Airport Hamburg Helmut Schmidt Airport (EDDH)

Arrival

Time N/A
Airport Düsseldorf Airport (EDDL)
Time Latitude Longitude Altitude Speed Heading
2026-04-30 22:21 53.63243 10.00016 50 ft 0 kts 322°
2026-04-30 22:34 53.63238 10.00022 49 ft 1 kts 323°
2026-04-30 22:35 53.63226 10.00038 46 ft 1 kts 323°
2026-04-30 22:36 53.63205 10.00075 50 ft 1 kts 261°
2026-04-30 22:36 53.63207 10.00088 50 ft 1 kts 235°
2026-04-30 22:37 53.63207 10.00089 50 ft 2 kts 229°
2026-04-30 22:37 53.63187 10.00051 49 ft 7 kts 229°
2026-04-30 22:37 53.63129 9.99830 47 ft 13 kts 309°
2026-04-30 22:38 53.63271 9.99686 50 ft 11 kts 289°
2026-04-30 22:38 53.63284 9.99580 49 ft 5 kts 280°
2026-04-30 22:39 53.63294 9.99489 49 ft 10 kts 280°
2026-04-30 22:39 53.63378 9.99301 50 ft 0 kts 332°
2026-04-30 22:40 53.64257 9.98548 50 ft 136 kts 333°
2026-04-30 22:41 53.66835 9.96272 1659 ft 148 kts 333°
2026-04-30 22:41 53.68712 9.94562 2873 ft 158 kts 333°
2026-04-30 22:42 53.71291 9.88068 5377 ft 228 kts 252°
2026-04-30 22:43 53.70141 9.82491 6495 ft 277 kts 249°
2026-04-30 22:43 53.68453 9.76405 8360 ft 294 kts 225°
2026-04-30 22:44 53.64901 9.72865 10394 ft 305 kts 203°
2026-04-30 22:45 53.56287 9.65974 12946 ft 370 kts 203°
2026-04-30 22:45 53.51565 9.62124 14668 ft 383 kts 203°
2026-04-30 22:46 53.46708 9.58178 16292 ft 393 kts 204°
2026-04-30 22:47 53.36594 9.50008 19325 ft 413 kts 204°
2026-04-30 22:47 53.31378 9.45812 20728 ft 420 kts 204°
2026-04-30 22:48 53.26056 9.41544 22031 ft 429 kts 204°
2026-04-30 22:49 53.17944 9.35061 23631 ft 438 kts 205°
2026-04-30 22:49 53.09618 9.28434 24569 ft 445 kts 205°
2026-04-30 22:50 52.98355 9.19513 25833 ft 453 kts 205°
2026-04-30 22:51 52.92944 9.14070 26387 ft 459 kts 219°
2026-04-30 22:51 52.88052 9.07288 26424 ft 458 kts 220°
2026-04-30 22:52 52.85607 9.03902 26428 ft 459 kts 220°
2026-04-30 22:52 52.80697 8.97155 26432 ft 459 kts 220°
2026-04-30 22:53 52.75781 8.90436 26420 ft 459 kts 219°
2026-04-30 22:53 52.70859 8.83732 26421 ft 459 kts 219°
2026-04-30 22:53 52.68396 8.80385 26419 ft 459 kts 219°
2026-04-30 22:54 52.63463 8.73697 26416 ft 459 kts 219°
2026-04-30 22:55 52.56065 8.63704 26419 ft 459 kts 219°
2026-04-30 22:55 52.51121 8.57051 26412 ft 459 kts 219°
2026-04-30 22:56 52.46179 8.50419 26413 ft 459 kts 219°
2026-04-30 22:56 52.38754 8.40494 26408 ft 459 kts 219°
2026-04-30 22:57 52.33794 8.33890 26415 ft 460 kts 219°
2026-04-30 22:57 52.28831 8.27301 26409 ft 459 kts 219°
2026-04-30 22:58 52.23901 8.20775 26399 ft 459 kts 218°
2026-04-30 22:59 52.16445 8.10941 26399 ft 459 kts 218°
2026-04-30 22:59 52.09016 8.01188 25787 ft 453 kts 218°